Regional Weather Roundup
Issued by NWS Goodland, KS

Home | Current Version | Previous Version | Graphics & Text | Print | Product List | Glossary On
Versions: 1 2 3 4 5 6 7 8 9 10 11 12 13 14 15 16 17 18 19 20 21 22 23 24 25 26 27 28 29 30 31 32 33 34 35 36 37 38 39 40 41 42 43 44 45 46 47 48 49 50
000
ASUS43 KGLD 020759
RWRGLD

GOODLAND FORECAST AREA HOURLY WEATHER ROUNDUP
NATIONAL WEATHER SERVICE GOODLAND KS
100 AM MST MON MAR 02 2015

...OFFICIAL OBSERVATIONS...

CITY           SKY/WX    TMP DP  RH WIND       PRES   REMARKS
GOODLAND KS    CLOUDY    29  21  72 S8        30.30F
HILL CITY KS   CLOUDY    30  21  69 SW3       30.41F
IMPERIAL NEB     N/A     27  18  69 SE6       30.30F
MCCOOK NEB     CLOUDY    32  18  56 S5        30.36F
AKRON CO       PTCLDY    25  19  78 S9        30.20F
BURLINGTON CO  CLOUDY    28  20  71 S12       30.27F WCI  18
LIMON CO       CLOUDY    23  20  88 S13       30.19F WCI  11
$$

...UNOFFICIAL OBSERVATIONS...

CITY           SKY/WX    TMP DP  RH WIND       PRES   REMARKS
COLBY KS       CLOUDY    30  27  86 S7        30.34F
GOVE KS          N/A     28  32 100 MISG        N/A
LENORA KS        N/A     29  32 100 CALM        N/A
NORTON KS      CLOUDY    30  19  64 S6        30.38S
SHARON SPRINGS   N/A     28  25  88 SE5         N/A
KIT CARSON CO    N/A     26  21  81 MISG        N/A
YUMA CO          N/A     27  18  68 CALM        N/A
$$



USA.gov is the U.S. government's official web portal to all federal, state and local government web resources and services.